Погода в Мийо

Франция     44°05′58″N   3°04′51″E
темп.,
°C
ветер,
м/с
пор.,
м/с
влажн.,
%
обл.,
%
осадки,
мм/ч
давл.,
гПа
погр.,
м
24 февраля, ср
ср2401:00+7вюв389521 0.0 1035260
04:00+6вюв38950 0.0 1034261
07:00+6в38950 0.0 1034229
10:00+10вюв411770 0.0 1033620
13:00+13юв613590 0.0 1032858
16:00+13юв512590 0.0 1030904
19:00+7вюв38850 0.0 1031258
22:00+6вюв310860 0.0 1031351
25 февраля, чт
чт2501:00+5в312870 0.0 1031400
04:00+5вюв411870 0.0 1030449
07:00+5вюв310910 0.0 1030379
10:00+9юв511750 0.0 1030708
13:00+12юв59680 0.0 1030785
16:00+12юв476813 0.0 1029709
19:00+6вюв12897 0.0 103123
22:00+5всв1192100 0.0 103222
26 февраля, пт
пт2601:00+4ссв119195 0.0 103222
04:00+4с119191 0.0 103222
07:00+3сз119196 0.0 103122
10:00+7з1280100 0.0 1032251
13:00+12з457594 0.0 1030678
16:00+11з468347 0.0 1029570
19:00+7з369731 0.0 1030263
22:00+8з259795 0.1 1031317
27 февраля, сб
сб2701:00+4зсз259761 0.1 1031190
04:00+2зсз22984 0.0 103163
07:00+3зюз259540 0.0 1031211
10:00+4з368563 0.0 1030536
13:00+7з587657 0.0 1029835
16:00+7сз597692 0.1 1029926
19:00+5зсз378681 0.1 1028580
22:00+4з369598 0.1 1029406
28 февраля, вс
вс2801:00+4зсз239797 0.1 1029141
04:00+2з129930 0.0 102891
07:00+3з119760 0.0 102892
10:00+6з118576 0.0 1028320
13:00+11ю136355 0.0 1027971
16:00+10юв456463 0.0 10251243
19:00+6вюв228781 0.1 102660
22:00+4в269566 0.0 1027183